x

Gravelly Shoals Light Mi (gslm4) Weather Station

3:40am - Wed 10th Feb 2016 All times are CST. -6 hours from GMT.

  • Wind
    21mph, 24mph gusts
  • Air Temp 16°f
  • Sea Pressure 1006.1mb
  • Gravelly Shoals Light Mi
  • Gravelly Shoals Light Mi

More Historic Weather Station data

Upgrade to MSW Pro to gain access to the past 30 days of data for over 8000 Wavebouys and Weather Stations around the globe.

Join Pro

Comparision Forecast

View Surf forecast
   
Wed 02/10 3:40am 21 24 mph 1006.1mb 16f
3:30am 20 24 mph 1006.1mb 17f
3:20am 21 25 mph 1006.1mb 17f
3:15am 20 24 mph 1006.1mb 17f
3:10am 21 24 mph 1005.8mb 17f
3:00am 23 26 mph 1005.8mb 17f
2:40am 21 29 mph 1005.8mb 17f
2:30am 24 28 mph 1005.8mb 17f
2:20am 23 28 mph 1005.8mb 18f
2:15am 24
mph
1005.8mb 18f
2:10am 23 29 mph 1005.8mb 18f
2:06am 22 29 mph 1005.8mb 18f
2:00am 17 23 mph 1005.8mb 18f
1:40am 21 26 mph 1005.8mb 19f
1:30am 22 25 mph 1005.8mb 19f
1:20am 21 25 mph 1005.4mb 19f
1:10am 20 25 mph 1005.4mb 19f
1:00am 22 29 mph 1005.4mb 19f
12:40am 25 28 mph 1005.4mb 19f
12:30am 23 30 mph 1005.4mb 19f
12:20am 25 28 mph 1005.4mb 20f
12:14am 22
mph
1005.4mb 19f
12:10am 23 28 mph 1005.4mb 19f
12:00am 25 29 mph 1005.4mb 19f
Tue 02/09 11:50pm 24 29 mph 1005.1mb 20f
11:40pm 25 28 mph 1005.4mb 20f
11:30pm 23 26 mph 1005.4mb 20f
11:20pm 24 28 mph 1005.4mb 20f
11:10pm 24 30 mph 1005.4mb 20f
11:00pm 24 29 mph 1005.4mb 20f
10:40pm 24 30 mph 1005.4mb 20f
10:30pm 23 29 mph 1005.4mb 20f
10:20pm 24 30 mph 1005.1mb 21f
10:19pm 24 30 mph 1005.1mb 21f
10:10pm 23 28 mph 1005.1mb 20f
10:00pm 23 31 mph 1005.4mb 21f
9:40pm 24 29 mph 1005.1mb 21f
9:30pm 23 30 mph 1005.1mb 21f
9:20pm 24 31 mph 1005.1mb 21f
9:13pm 28
mph
1005.1mb 22f
9:10pm 29 31 mph 1004.7mb 22f
9:02pm 24 29 mph 1004.7mb 22f
9:00pm 21 28 mph 1005.1mb 22f
8:40pm 23 28 mph 1005.1mb 23f
8:30pm 22 25 mph 1005.1mb 22f
8:20pm 20 30 mph 1005.1mb 23f
8:12pm 23
mph
1004.7mb 23f
8:10pm 23 30 mph 1004.7mb 23f
8:00pm 24 31 mph 1004.7mb 23f
7:54pm 23 31 mph 1004.7mb 23f
7:40pm 17 22 mph 1004.7mb 24f
7:30pm 17 22 mph 1005.1mb 24f
7:20pm 18 24 mph 1004.7mb 24f
7:12pm 22
mph
1004.7mb 25f
7:10pm 22 29 mph 1004.7mb 25f
7:00pm 23 25 mph 1004.4mb 25f
6:40pm 24 30 mph 1004.4mb 26f
6:30pm 24 30 mph 1004.4mb 26f
6:22pm 22 30 mph 1004.4mb 26f
6:20pm 22 28 mph 1004.4mb 26f
6:10pm 21 26 mph 1004.4mb 26f
6:00pm 21 26 mph 1004.4mb 26f
5:30pm 23 26 mph 1004.1mb 27f
5:20pm 20 26 mph 1003.7mb 27f
5:11pm 23
mph
1003.4mb 27f
5:10pm 23 26 mph 1003.4mb 27f
5:00pm 24 29 mph 1003.4mb 27f
4:40pm 24 30 mph 1003mb 27f
4:30pm 26 32 mph 1002.7mb 27f
4:20pm 26 30 mph 1002.7mb 27f
4:10pm 25 29 mph 1002.7mb 27f
4:00pm 24 30 mph 1002.7mb 27f
3:40pm 26 31 mph 1002.4mb 27f
3:30pm 26 31 mph 1002mb 27f
3:20pm 28 29 mph 1002mb 27f
3:10pm 24
mph
1001.7mb 27f
3:00pm 24 30 mph 1001.7mb 27f
2:40pm 25 30 mph 1001.4mb 27f
2:30pm 28 30 mph 1001.4mb 27f
2:20pm 26 31 mph 1001.4mb 27f
2:19pm 25 29 mph 1001.4mb 27f
2:10pm 22 28 mph 1001.4mb 27f
2:09pm 24
mph
1001.4mb 27f
2:00pm 22 30 mph 1001mb 27f
1:40pm 23 28 mph 1001mb 27f
1:30pm 22 30 mph 1001mb 27f
1:20pm 24 31 mph 1000.7mb 27f
1:12pm 25 31 mph 1000.7mb 27f
1:10pm 26 31 mph 1000.7mb 27f
1:00pm 24 31 mph 1000.7mb 27f
12:40pm 23 29 mph 1000.7mb 27f
12:30pm 23 29 mph 1000.7mb 27f
12:20pm 24 29 mph 1000.7mb 26f
12:11pm 23 29 mph 1000.7mb 26f
12:10pm 23 29 mph 1000.7mb 26f
12:00pm 23 26 mph 1000.7mb 26f
11:40am 24 29 mph 1000.7mb 26f
11:30am 26 30 mph 1000.7mb 26f
11:20am 25 32 mph 1000.7mb 26f
11:10am 26 31 mph 1000.7mb 26f
11:09am 25 31 mph 1000.7mb 26f
11:00am 28 31 mph 1000.7mb 26f
10:40am 26 29 mph 1001mb 26f
10:30am 24 29 mph 1001.4mb 26f
10:20am 24 31 mph 1001mb 26f
10:10am 23 30 mph 1001mb 26f
10:08am 26
mph
1001mb 26f
10:00am 23 26 mph 1001mb 26f
9:40am 22 26 mph 1001mb 26f
9:30am 24 28 mph 1001mb 26f
9:20am 22 28 mph 1001mb 26f
9:10am 23 28 mph 1001mb 26f
9:07am 25
mph
1001mb 26f
9:00am 25 29 mph 1000.7mb 26f
8:53am 23 29 mph 1000.7mb 26f
8:40am 21 28 mph 1001mb 26f
8:30am 23 26 mph 1001mb 26f
8:20am 22 28 mph 1001mb 26f
8:10am 22 25 mph 1001mb 26f
8:07am 21 28 mph 1001mb 26f
8:00am 20 25 mph 1001mb 26f
7:40am 23 26 mph 1000.7mb 26f
7:30am 23 25 mph 1000.7mb 26f
7:20am 21 26 mph 1000.7mb 26f
7:10am 23 28 mph 1000.7mb 26f
7:06am 23 29 mph 1000.7mb 26f
7:00am 24 29 mph 1000.7mb 26f
6:40am 21 24 mph 1000.7mb 26f
6:30am 22 24 mph 1000.7mb 26f
6:20am 20 28 mph 1000.3mb 26f
6:10am 23 26 mph 1000.3mb 26f
6:06am 23 28 mph 1000mb 26f
6:00am 22 25 mph 1000.3mb 26f
5:40am 24 26 mph 1000mb 26f
5:30am 23 25 mph 1000mb 27f
5:20am 21 23 mph 1000mb 27f
5:10am 20 23 mph 1000mb 27f
5:06am 17 25 mph 1000mb 28f
5:00am 16 20 mph 1000mb 28f
4:40am 20 25 mph 1000mb 28f
4:30am 18 24 mph 1000mb 28f
4:20am 21 23 mph 1000mb 29f
4:10am 17 26 mph 1000mb 29f
4:05am 22 28 mph 1000mb 29f
4:00am 24 28 mph 999.7mb 29f
3:50am 22 24 mph 999.7mb 29f
3:40am 21 26 mph 999.7mb 29f
3:30am 23 26 mph 999.7mb 29f
3:20am 20 26 mph 999.7mb 29f
3:10am 23 26 mph 999.3mb 29f
3:00am 22 26 mph 999.7mb 30f
2:50am 22 23 mph 999.7mb 30f
2:40am 17 23 mph 999.7mb 30f
2:30am 25 29 mph 999.7mb 30f
2:20am 20 23 mph 1000mb 31f
2:10am 22 25 mph 1000mb 31f
2:04am 21 24 mph 1000mb 31f
2:00am 20 23 mph 1000mb 31f
1:50am 18 21 mph 1000mb 31f
1:40am 17 20 mph 1000mb 32f
1:30am 18 22 mph 1000mb 32f
1:20am 18 24 mph 1000mb 32f
1:10am 20 23 mph 1000mb 32f
1:04am 16 23 mph 1000mb 32f
1:00am 11 20 mph 1000mb 32f
12:50am 20 23 mph 1000mb 33f
12:40am 16 18 mph 1000mb 32f
12:30am 14 16 mph 1000mb 32f
12:20am 14 15 mph 1000.3mb 33f
12:10am 14 16 mph 1000.3mb 33f
12:04am 15 18 mph 1000.3mb 33f
12:00am 15 16 mph 1000.3mb 33f
Mon 02/08 11:50pm 15 17 mph 1000.7mb 33f
11:40pm 16 18 mph 1000.7mb 33f
11:30pm 16 18 mph 1000.7mb 33f
11:20pm 16 18 mph 1000.7mb 33f
11:10pm 17 18 mph 1000.7mb 33f
11:03pm 15 17 mph 1000.7mb 33f
11:00pm 16 17 mph 1000.7mb 33f
10:50pm 16 17 mph 1000.7mb 33f
10:40pm 15 17 mph 1000.7mb 33f
10:30pm 14 15 mph 1000.7mb 33f
10:20pm 14 16 mph 1001mb 33f
10:10pm 14 16 mph 1001mb 33f
10:03pm 13 14 mph 1001mb 33f
10:00pm 13 14 mph 1001mb 33f
9:50pm 11 13 mph 1001mb 33f
9:40pm 10
mph
1001mb 32f
9:30pm 10 11 mph 1001.4mb 32f
9:20pm 9
mph
1001.4mb 33f
9:10pm 8 9 mph 1001.4mb 33f
9:02pm 8
mph
1001.4mb 33f
9:00pm 7 8 mph 1001.4mb 33f
8:50pm 7
mph
1001.7mb 33f
8:40pm 6 7 mph 1001.7mb 33f
8:30pm 6 7 mph 1001.7mb 32f
8:20pm 6
mph
1001.7mb 33f
8:10pm 6 7 mph 1001.7mb 33f
8:02pm 7 14 mph 1001.7mb 32f
8:00pm 7 8 mph 1001.7mb 32f
7:50pm 8 9 mph 1001.7mb 32f
7:40pm 9 10 mph 1001.7mb 33f
7:30pm 9 10 mph 1002mb 33f
7:20pm 10
mph
1002mb 33f
7:10pm 9 14 mph 1002mb 33f
7:02pm 13 14 mph 1002mb 34f
7:00pm 11 14 mph 1002mb 34f
6:50pm 6
mph
1002mb 36f
6:40pm 2 6 mph 1002mb 36f
6:30pm 3 6 mph 1002mb 36f
6:20pm 5 7 mph 1002.4mb 36f
6:10pm 3
mph
1002.4mb 37f
6:01pm  -  5 mph 1002mb 37f
6:00pm  -  2 mph 1002mb 37f
5:50pm 1 3 mph 1002mb 37f
5:30pm 2 3 mph 1002mb 36f
5:20pm 2 5 mph 1002mb 35f
5:10pm 3 5 mph 1002mb 35f
5:01pm 5 8 mph 1002mb 35f
5:00pm 5 6 mph 1002mb 35f
4:50pm 5 7 mph 1002mb 35f
4:40pm 5 7 mph 1002mb 36f
4:30pm 7 8 mph 1002mb 35f
4:20pm 8
mph
1002mb 35f
4:10pm 8
mph
1002mb 35f
4:00pm 7 9 mph 1002mb 35f
3:50pm 7 8 mph 1002mb 35f
3:40pm 8 9 mph 1002mb 35f
3:30pm 9
mph
1002mb 34f
3:20pm 8 9 mph 1002mb 34f
3:10pm 8
mph
1002mb 35f
3:00pm 8 9 mph 1002mb 34f
2:50pm 8
mph
1002mb 35f
2:40pm 7 8 mph 1002mb 34f
2:30pm 8 9 mph 1002mb 34f
2:20pm 7 8 mph 1002mb 35f
2:10pm 7 8 mph 1002mb 34f
2:00pm 7 8 mph 1001.7mb 36f
1:50pm 5 7 mph 1001.7mb 35f
1:40pm 6
mph
1001.7mb 36f
1:30pm 3 5 mph 1001.7mb 37f
1:20pm 2
mph
1001.7mb 37f
1:10pm 1 3 mph 1001.4mb 35f
1:00pm  -  1 mph 1001.7mb 34f
12:50pm 1 3 mph 1001.7mb 34f
12:40pm 3 7 mph 1001.7mb 34f
12:30pm 7 8 mph 1002mb 33f
12:20pm 8
mph
1002mb 33f
12:19pm 7 10 mph 1002mb 33f
12:10pm 7 8 mph 1002mb 33f
12:00pm 6 9 mph 1002.4mb 33f
11:40am 9
mph
1002.7mb 33f
11:30am 9 10 mph 1002.7mb 33f
11:20am 8 9 mph 1002.7mb 33f
11:19am 8 9 mph 1002.7mb 33f
11:10am 8 9 mph 1002.7mb 33f
11:00am 9
mph
1002.7mb 33f
10:50am 6 8 mph 1003mb 33f
10:40am 6 7 mph 1003mb 33f
10:30am 7
mph
1003.4mb 33f
10:20am 6 9 mph 1003.4mb 33f
10:19am 6 9 mph 1003.4mb 33f
10:10am 8 9 mph 1003.4mb 33f
10:00am 7 9 mph 1003.4mb 33f
9:50am 8 9 mph 1003.4mb 33f
9:40am 8 9 mph 1003.4mb 33f
9:30am 7 8 mph 1003.4mb 33f
9:20am 6 8 mph 1003.4mb 33f
9:18am 6 13 mph 1003.4mb 33f
9:10am 7 8 mph 1003.4mb 33f
9:00am 7 10 mph 1003.4mb 33f
8:50am 9 13 mph 1003.4mb 32f
8:40am 13
mph
1003mb 33f
8:30am 10 13 mph 1003mb 33f
8:20am 13
mph
1003.4mb 33f
8:18am 13 14 mph 1003.4mb 33f
8:10am 11
mph
1003.4mb 33f
8:00am 8 9 mph 1003mb 34f
7:50am 8 10 mph 1003mb 34f
7:40am 8 11 mph 1003.4mb 34f
7:30am 10 14 mph 1003.4mb 34f
7:20am 13 15 mph 1003.4mb 34f
7:17am 14 15 mph 1003.4mb 34f
7:10am 14 15 mph 1003.4mb 34f
7:00am 15
mph
1003.4mb 34f
6:50am 7 9 mph 1003.4mb 34f
6:40am 5 7 mph 1003mb 34f
6:30am 3 6 mph 1003.4mb 34f
6:20am 5 6 mph 1003mb 34f
6:17am 5 6 mph 1003mb 34f
6:10am 5 6 mph 1003.4mb 34f
6:00am 3 6 mph 1003.4mb 34f
5:50am 5 6 mph 1003.4mb 35f
5:40am 2 6 mph 1003.4mb 35f
5:30am 2 6 mph 1003.4mb 35f
5:20am 5 7 mph 1003.4mb 35f
5:17am 3 11 mph 1003.4mb 35f
5:10am 6 10 mph 1003.4mb 35f
5:00am 6 10 mph 1003.4mb 34f
4:50am 9 11 mph 1003.4mb 35f
4:16am 3 8 mph 1003.4mb 35f
3:40am 3 7 mph 1003.4mb 35f
3:30am 3 8 mph 1003.4mb 35f
3:20am 5 8 mph 1003.4mb 35f
3:16am 5 8 mph 1003.4mb 35f
3:10am 5 8 mph 1003.4mb 35f
3:00am 3 7 mph 1003.4mb 35f
2:50am 2 5 mph 1003.4mb 36f
2:40am 3 6 mph 1003.7mb 36f
2:30am 3 5 mph 1003.7mb 36f
2:20am 3 5 mph 1003.7mb 36f
2:15am 2 7 mph 1003.7mb 36f
2:10am 3 6 mph 1003.7mb 36f
2:00am 5 6 mph 1004.1mb 36f
1:50am 3 7 mph 1004.1mb 36f
1:40am 3 7 mph 1004.1mb 37f
1:30am 5 7 mph 1004.1mb 37f
1:20am 5 6 mph 1004.4mb 36f
1:15am 5 7 mph 1004.1mb 36f
1:10am 5 7 mph 1004.4mb 37f
1:00am 3 6 mph 1004.1mb 37f
12:50am 2 6 mph 1004.1mb 37f
12:40am 3 7 mph 1004.1mb 37f
12:30am 5 6 mph 1004.1mb 36f
12:20am 5 7 mph 1004.4mb 36f
12:15am 3 8 mph 1004.4mb 36f
12:10am 3 7 mph 1004.7mb 37f
12:00am 5 8 mph 1004.7mb 36f
Sun 02/07 11:50pm 5 7 mph 1004.7mb 36f
11:40pm 3 6 mph 1005.1mb 37f
11:30pm 3 6 mph 1004.7mb 36f
11:20pm 3 6 mph 1005.1mb 37f
11:14pm 2 11 mph 1005.1mb 37f
11:10pm 3 7 mph 1005.1mb 37f
11:00pm 5 6 mph 1005.1mb 37f
10:50pm 3 7 mph 1005.1mb 37f
10:40pm 5 9 mph 1005.1mb 38f
10:30pm 5 8 mph 1005.1mb 38f
10:20pm 6 13 mph 1005.1mb 38f
10:14pm 11 16 mph 1005.1mb 38f
10:10pm 11 16 mph 1005.1mb 38f
10:00pm 10 13 mph 1005.1mb 38f
9:50pm 5 7 mph 1005.4mb 38f
9:40pm 5 8 mph 1005.4mb 37f
9:30pm 6 7 mph 1005.4mb 37f
9:20pm 5 8 mph 1005.8mb 37f
9:13pm 5 15 mph 1005.8mb 37f
9:10pm 5 8 mph 1006.1mb 37f
9:00pm 6 9 mph 1006.1mb 38f
8:50pm 7 8 mph 1006.1mb 37f
8:40pm 6 7 mph 1006.1mb 37f
8:30pm 3 15 mph 1006.1mb 36f
8:20pm 6 10 mph 1006.1mb 38f
8:13pm 5 14 mph 1006.1mb 38f
8:10pm 6 10 mph 1006.1mb 38f
8:00pm 8 13 mph 1006.1mb 37f
7:50pm 8 14 mph 1006.1mb 38f
7:40pm 7 14 mph 1006.4mb 38f
7:30pm 8 10 mph 1006.1mb 39f
7:20pm 7 9 mph 1006.4mb 40f
7:13pm 6 24 mph 1006.4mb 39f
7:10pm 6 17 mph 1006.4mb 39f
7:00pm 9 21 mph 1006.8mb 39f
6:50pm 20 25 mph 1006.8mb 40f
6:40pm 23 26 mph 1006.8mb 40f
6:30pm 17 24 mph 1006.8mb 42f
6:20pm 7 11 mph 1006.8mb 41f
6:12pm 7
mph
1006.8mb 41f
6:10pm 5 20 mph 1006.8mb 41f
6:00pm 13 18 mph 1006.8mb 42f
5:50pm 15 39 mph 1007.1mb 43f
5:41pm 7 36 mph 1006.8mb 39f
5:30pm 8 9 mph 1006.8mb 39f
5:20pm 8 10 mph 1006.8mb 39f
5:12pm 8 21 mph 1006.8mb 40f
5:10pm 9 13 mph 1006.8mb 40f
5:00pm 8 13 mph 1006.8mb 40f
4:50pm 9 15 mph 1006.4mb 40f
4:40pm 14 21 mph 1006.4mb 39f
4:30pm 17 20 mph 1006.4mb 39f
4:20pm 17 20 mph 1006.4mb 40f
4:11pm 15 20 mph 1006.1mb 40f
4:10pm 15 18 mph 1006.1mb 40f
4:00pm 10 16 mph 1006.1mb 40f
3:50pm 13 15 mph 1006.1mb 40f
3:40pm 13 17 mph 1006.1mb 40f
3:30pm 17 20 mph 1006.4mb 40f
3:20pm 17 18 mph 1006.1mb 39f
3:11pm 18 23 mph 1006.4mb 40f
3:10pm 18 22 mph 1006.4mb 40f
3:00pm 22
mph
1006.4mb 40f
2:50pm 20 22 mph 1006.4mb 40f
2:40pm 22 23 mph 1006.4mb 40f
2:30pm 21 22 mph 1006.4mb 39f
2:20pm 20 21 mph 1006.4mb 38f
2:11pm 13 20 mph 1006.8mb 38f
2:10pm 13 18 mph 1006.8mb 38f
2:00pm 18
mph
1006.8mb 38f
1:50pm 15 17 mph 1006.8mb 39f
1:40pm 9 18 mph 1007.1mb 38f
1:30pm 17 20 mph 1007.1mb 38f
1:20pm 15 17 mph 1007.1mb 37f
1:10pm 17 25 mph 1007.1mb 38f
1:00pm 20 23 mph 1007.1mb 38f
12:50pm 22 25 mph 1007.1mb 38f
12:10pm 23 25 mph 1008.5mb 37f
11:40am 21 22 mph 1009.1mb 37f
11:30am 22 25 mph 1009.5mb 37f
11:20am 23 25 mph 1009.8mb 37f
11:10am 23 24 mph 1009.8mb 36f
11:09am 22 26 mph 1009.8mb 36f
11:00am 21 24 mph 1010.2mb 36f
10:50am 23 25 mph 1010.2mb 35f
10:40am 24 25 mph 1010.5mb 35f
10:30am 24 26 mph 1010.5mb 35f
10:20am 23 25 mph 1010.8mb 35f
10:10am 23 25 mph 1011.2mb 35f
10:09am 23 26 mph 1011.2mb 35f
10:00am 24 26 mph 1010.8mb 35f
9:50am 23 24 mph 1011.2mb 34f
9:40am 22 24 mph 1010.8mb 35f
9:30am 22 24 mph 1011.2mb 35f
9:20am 22 23 mph 1011.5mb 34f
9:10am 22 24 mph 1011.5mb 34f
9:08am 23 24 mph 1011.5mb 34f
9:00am 20 22 mph 1011.5mb 34f
8:50am 20 22 mph 1011.9mb 33f
8:40am 20 21 mph 1011.9mb 33f
8:30am 20 21 mph 1011.9mb 33f
8:20am 18 20 mph 1012.2mb 33f
8:10am 18 22 mph 1012.2mb 33f
8:08am 18 23 mph 1012.2mb 33f
8:00am 21 22 mph 1012.2mb 33f
7:50am 20 22 mph 1012.2mb 33f
7:40am 20 22 mph 1012.5mb 33f
7:30am 21 23 mph 1012.5mb 33f
7:20am 21 23 mph 1012.9mb 32f
7:10am 21 23 mph 1012.9mb 32f
7:08am 22 25 mph 1012.9mb 32f
7:00am 22 24 mph 1013.2mb 32f
6:40am 22 24 mph 1013.2mb 33f
6:30am 23 25 mph 1013.2mb 32f
6:20am 23 25 mph 1013.5mb 33f
6:10am 22 25 mph 1013.5mb 32f
6:07am 23 25 mph 1013.5mb 33f
6:00am 23 25 mph 1013.5mb 33f
5:50am 22 24 mph 1013.5mb 32f
5:40am 20 23 mph 1013.9mb 32f
5:30am 22 23 mph 1013.9mb 32f
5:20am 22 23 mph 1014.2mb 32f
5:10am 21 24 mph 1014.2mb 32f
5:07am 23 26 mph 1014.2mb 32f
5:00am 22 26 mph 1014.2mb 32f
4:50am 22 25 mph 1014.6mb 32f
4:40am 22 25 mph 1014.6mb 32f
4:30am 23 24 mph 1014.6mb 32f
4:20am 22 24 mph 1014.9mb 32f
4:10am 20 22 mph 1014.9mb 32f
4:06am 18 22 mph 1014.9mb 32f
4:00am 17 22 mph 1014.9mb 32f
3:50am 20 22 mph 1015.2mb 32f
3:40am 18 21 mph 1015.2mb 32f
3:30am 15 18 mph 1015.6mb 32f
3:20am 14 18 mph 1015.9mb 31f
3:10am 15 17 mph 1015.9mb 31f
3:06am 15 18 mph 1015.9mb 31f
3:00am 16 18 mph 1015.9mb 31f
2:50am 16 18 mph 1016.3mb 31f
2:40am 13 15 mph 1016.3mb 31f
2:30am 10 13 mph 1016.6mb 31f
2:20am 7 9 mph 1016.6mb 31f
2:10am 6 7 mph 1016.9mb 31f
2:06am 5 7 mph 1016.9mb 31f
2:00am 5 7 mph 1016.9mb 31f
1:50am 5 7 mph 1017.3mb 31f
1:40am 5 7 mph 1017.3mb 31f
1:30am 3 7 mph 1017.3mb 31f
1:20am 2 5 mph 1017.3mb 31f
1:10am 2 5 mph 1017.3mb 31f
1:05am 3 8 mph 1017.3mb 31f
1:00am 3 6 mph 1017.3mb 31f
12:50am 3 6 mph 1017.6mb 31f
12:40am 2 7 mph 1017.6mb 31f
12:30am 3 8 mph 1017.6mb 32f
12:20am 3 7 mph 1017.6mb 32f
12:10am 5 8 mph 1017.6mb 32f
12:05am 5 11 mph 1017.9mb 32f
12:00am 5 8 mph 1017.9mb 32f
Sat 02/06 11:50pm 5 8 mph 1017.9mb 32f
11:40pm 5 10 mph 1017.9mb 32f
11:30pm 7 11 mph 1017.9mb 33f
11:20pm 3 8 mph 1017.9mb 32f
11:10pm 3 8 mph 1017.9mb 32f
11:04pm 5 8 mph 1018.3mb 32f
11:00pm 3 7 mph 1018.3mb 32f
10:50pm 5 8 mph 1018.3mb 32f
10:40pm 6 8 mph 1018.3mb 32f
10:30pm 5 8 mph 1018.6mb 32f
10:20pm 3 7 mph 1018.6mb 32f
10:10pm 5 8 mph 1018.6mb 32f
10:04pm 5 11 mph 1018.6mb 32f
10:00pm 5 10 mph 1018.6mb 32f
9:50pm 6 8 mph 1019mb 32f
9:40pm 5 7 mph 1019mb 32f
9:30pm 3 7 mph 1019mb 32f
9:20pm 3 8 mph 1019mb 32f
9:10pm 6 11 mph 1019.3mb 32f
9:04pm 7 20 mph 1019.3mb 32f
9:00pm 7 14 mph 1019.3mb 32f
8:50pm 6 11 mph 1019.3mb 32f
8:03pm 17 21 mph 1020mb 32f
7:40pm 18 21 mph 1020mb 33f
7:30pm 17 20 mph 1020mb 33f
7:20pm 15 20 mph 1020.3mb 33f
7:10pm 17 18 mph 1020.3mb 33f
7:03pm 15 21 mph 1020.3mb 33f
7:00pm 16 17 mph 1020.3mb 33f
6:50pm 16 18 mph 1020.3mb 33f
6:40pm 17 20 mph 1020.3mb 33f
6:30pm 17 20 mph 1020.3mb 33f
6:20pm 17 20 mph 1020.3mb 33f
6:10pm 18 21 mph 1020.3mb 33f
6:02pm 18 23 mph 1020.3mb 33f
6:00pm 18 21 mph 1020.3mb 33f
5:50pm 18 20 mph 1020.3mb 33f
5:30pm 20 23 mph 1020.3mb 33f
5:20pm 17 20 mph 1020.3mb 33f
5:10pm 16 18 mph 1020.3mb 33f
5:02pm 16 26 mph 1020mb 33f
5:00pm 15 17 mph 1020.3mb 33f
4:50pm 15 18 mph 1020mb 33f
4:40pm 17 21 mph 1020mb 33f
4:30pm 20 24 mph 1020mb 33f
4:20pm 23 26 mph 1020mb 33f
4:10pm 25 26 mph 1019.6mb 33f
4:02pm 22 28 mph 1019.6mb 33f
4:00pm 21 24 mph 1019.6mb 33f
3:50pm 22 25 mph 1019.6mb 33f
3:40pm 21 26 mph 1019.3mb 33f
3:30pm 20 24 mph 1019.6mb 33f
3:20pm 21 24 mph 1019.6mb 33f
3:10pm 21 28 mph 1019.6mb 33f
3:01pm 26 29 mph 1019.3mb 33f
3:00pm 26 29 mph 1019.3mb 33f
2:50pm 18 23 mph 1019.3mb 33f
2:40pm 17 21 mph 1019.3mb 33f
2:30pm 14 21 mph 1019.3mb 33f
2:20pm 11 22 mph 1019.3mb 33f
2:10pm 18 21 mph 1019.3mb 33f
2:01pm 20 24 mph 1019.6mb 33f
2:00pm 20 21 mph 1019.6mb 33f
1:50pm 17 21 mph 1019.6mb 33f
1:40pm 18 21 mph 1019.6mb 33f
1:30pm 22 23 mph 1019.6mb 33f
1:20pm 21 24 mph 1019.6mb 33f
1:10pm 21 26 mph 1019.6mb 33f
1:00pm 23
mph
1020mb 33f
12:50pm 22 26 mph 1020mb 33f
12:40pm 25 28 mph 1020mb 33f
12:30pm 23 29 mph 1020mb 33f
12:20pm 25 30 mph 1020.3mb 33f
12:10pm 26 30 mph 1020.3mb 33f
12:00pm 22 26 mph 1020.7mb 32f
11:50am 22 25 mph 1020.7mb 32f
11:40am 20 24 mph 1021mb 31f
11:30am 16 24 mph 1021mb 31f
11:20am 15 25 mph 1021.3mb 30f
11:10am 21 26 mph 1021.3mb 30f
11:00am 20 28 mph 1021.3mb 30f